This demonstration page uses our WeatherBlox Daily Observations layout. Learn more.

Left ArrowRight Arrow

41.12389, -100.76542

Hourly Observations for July 10, 2018

Temp ( °F °C ) Dew Point ( °F °C ) Humidity (%) Winds ( mph kmh ) Pressure ( in mb ) Visibility ( mi km ) Precip ( " mm )
12:53 am 00:53 Clear 64 17.8 62 16.7 93 93 SE 7 11 30.13 1020 10 16 0.00 0.00
1:53 am 01:53 Clear 63 17.2 61 16.1 93 93 SE 8 13 30.11 1020 10 16 0.00 0.00
2:53 am 02:53 Clear 62 16.7 61 16.1 96 96 ESE 5 7 30.11 1020 10 16 0.00 0.00
3:53 am 03:53 Clear 64 17.8 61 16.1 90 90 ESE 5 7 30.10 1019 10 16 0.00 0.00
4:53 am 04:53 Clear 63 17.2 60 15.6 90 90 ESE 5 7 30.10 1019 10 16 0.00 0.00
5:53 am 05:53 Clear 63 17.2 61 16.1 93 93 Calm 30.09 1019 10 16 0.00 0.00
6:53 am 06:53 Sunny 63 17.2 60 15.6 90 90 SE 6 9 30.09 1019 10 16 0.00 0.00
7:53 am 07:53 Sunny 70 21.1 64 17.8 82 82 Calm 30.09 1019 10 16 0.00 0.00
8:53 am 08:53 Sunny 76 24.4 67 19.4 74 74 SSW 7 11 30.09 1019 10 16 0.00 0.00
9:53 am 09:53 Sunny 81 27.2 66 18.9 61 61 S 8 13 30.09 1019 10 16 0.00 0.00
10:53 am 10:53 Sunny 86 30 68 20 55 55 SSW 8 13 30.08 1019 10 16 0.00 0.00
11:53 am 11:53 Sunny 89 31.7 67 19.4 48 48 SSW 13 20 30.07 1018 10 16 0.00 0.00
12:53 pm 12:53 Sunny 91 32.8 64 17.8 41 41 SSW 15 24 30.05 1018 10 16 0.00 0.00
1:53 pm 13:53 Sunny 92 33.3 66 18.9 43 43 SSW 15 24 30.04 1017 10 16 0.00 0.00
2:53 pm 14:53 Sunny 93 33.9 63 17.2 37 37 S 14 22 30.02 1017 10 16 0.00 0.00
3:53 pm 15:53 Sunny 94 34.4 62 16.7 35 35 S 14 22 30.00 1016 10 16 0.00 0.00
4:53 pm 16:53 Sunny 94 34.4 63 17.2 36 36 S 13 20 29.98 1015 10 16 0.00 0.00
5:53 pm 17:53 Sunny 93 33.9 63 17.2 37 37 S 13 20 29.97 1015 10 16 0.00 0.00
6:53 pm 18:53 Sunny 91 32.8 63 17.2 39 39 S 9 15 29.95 1014 10 16 0.00 0.00
7:53 pm 19:53 Sunny 88 31.1 64 17.8 45 45 SSE 10 17 29.93 1014 10 16 0.00 0.00
8:53 pm 20:53 Sunny 82 27.8 66 18.9 58 58 SSE 9 15 29.93 1014 10 16 0.00 0.00
9:53 pm 21:53 Clear 75 23.9 65 18.3 71 71 SE 8 13 29.95 1014 10 16 0.00 0.00
10:53 pm 22:53 Clear 73 22.8 64 17.8 74 74 SE 9 15 29.96 1015 10 16 0.00 0.00
11:53 pm 23:53 Clear 80 26.7 65 18.3 60 60 S 10 17 29.95 1014 10 16 0.00 0.00

Powered by AerisWeather